• En España
  • Lista de países
  • Para 7 días
  • Temperatura del agua
  • Mapa Satelital
  • El tiempo en el mapa
  • Informadores
  • user-avatar
    Iniciar sesión

    Tiempo cada hora Polotsk

    Hoy, 22 Octubre, Lunes

    Tiempo Temperatura Precipitaciones Viento Presión Humedad
    00:00 +4°C° 0 mm 2 mps 755 mmHg 88%
    01:00 +3°C° 0 mm 2 mps 755 mmHg 89%
    02:00 +3°C° 0 mm 2 mps 754 mmHg 91%
    03:00 +3°C° 0 mm 2 mps 754 mmHg 91%
    04:00 +3°C° 0 mm 2 mps 754 mmHg 92%
    05:00 +2°C° 0 mm 3 mps 753 mmHg 92%
    06:00 +2°C° 0 mm 3 mps 753 mmHg 91%
    07:00 +3°C° 0 mm 3 mps 753 mmHg 90%
    08:00 +3°C° 0 mm 4 mps 753 mmHg 88%
    09:00 +5°C° 0 mm 4 mps 752 mmHg 82%
    10:00 +6°C° 0 mm 5 mps 752 mmHg 76%
    11:00 +8°C° 0 mm 5 mps 751 mmHg 69%
    12:00 +8°C° 0 mm 5 mps 751 mmHg 67%
    13:00 +9°C° 0 mm 5 mps 750 mmHg 65%
    14:00 +9°C° 0 mm 5 mps 749 mmHg 64%
    15:00 +9°C° 0 mm 5 mps 748 mmHg 67%
    16:00 +8°C° 0 mm 5 mps 748 mmHg 70%
    17:00 +7°C° 0 mm 4 mps 747 mmHg 74%
    18:00 +7°C° 0.2 mm 5 mps 747 mmHg 76%
    19:00 +7°C° 0.2 mm 5 mps 746 mmHg 79%
    20:00 +7°C° 0.2 mm 5 mps 746 mmHg 81%
    21:00 +7°C° 0.5 mm 5 mps 746 mmHg 83%
    22:00 +7°C° 0.5 mm 4 mps 745 mmHg 86%
    23:00 +7°C° 0.5 mm 4 mps 745 mmHg 89%

    Mañana, 23 Octubre, Martes

    Tiempo Temperatura Precipitaciones Viento Presión Humedad
    00:00 +6°C° 0 mm 4 mps 745 mmHg 89%
    01:00 +5°C° 0 mm 4 mps 745 mmHg 90%
    02:00 +4°C° 0 mm 3 mps 745 mmHg 91%
    03:00 +3°C° 0 mm 3 mps 745 mmHg 92%
    04:00 +3°C° 0 mm 3 mps 744 mmHg 92%
    05:00 +2°C° 0 mm 3 mps 744 mmHg 93%
    06:00 +2°C° 0 mm 3 mps 744 mmHg 91%
    07:00 +2°C° 0 mm 3 mps 744 mmHg 90%
    08:00 +3°C° 0 mm 2 mps 744 mmHg 89%
    09:00 +3°C° 0 mm 3 mps 743 mmHg 83%
    10:00 +4°C° 0 mm 3 mps 742 mmHg 77%
    11:00 +7°C° 0 mm 3 mps 742 mmHg 70%
    12:00 +6°C° 0 mm 4 mps 741 mmHg 69%
    13:00 +6°C° 0 mm 4 mps 740 mmHg 67%
    14:00 +7°C° 0 mm 5 mps 738 mmHg 65%
    15:00 +6°C° 0 mm 5 mps 737 mmHg 69%
    16:00 +5°C° 0 mm 4 mps 736 mmHg 73%
    17:00 +5°C° 0 mm 4 mps 735 mmHg 77%
    18:00 +3°C° 0 mm 5 mps 733 mmHg 78%
    19:00 +3°C° 0 mm 5 mps 732 mmHg 80%
    20:00 +3°C° 0 mm 6 mps 731 mmHg 81%
    21:00 +3°C° 0.2 mm 6 mps 729 mmHg 81%
    22:00 +3°C° 0.2 mm 6 mps 727 mmHg 82%
    23:00 +3°C° 0.2 mm 6 mps 726 mmHg 82%

    Pasado mañana, 24 Octubre, Miércoles

    Tiempo Temperatura Precipitaciones Viento Presión Humedad
    00:00 +3°C° 0.8 mm 6 mps 725 mmHg 83%
    01:00 +3°C° 0.8 mm 6 mps 724 mmHg 85%
    02:00 +3°C° 0.8 mm 5 mps 722 mmHg 86%
    03:00 +4°C° 0.8 mm 4 mps 722 mmHg 88%
    04:00 +4°C° 0.8 mm 4 mps 721 mmHg 90%
    05:00 +4°C° 0.8 mm 3 mps 721 mmHg 92%
    06:00 +4°C° 0.3 mm 3 mps 721 mmHg 92%
    07:00 +4°C° 0.3 mm 3 mps 721 mmHg 92%
    08:00 +5°C° 0.3 mm 3 mps 721 mmHg 92%
    09:00 +5°C° 0.1 mm 3 mps 721 mmHg 89%
    10:00 +5°C° 0.1 mm 3 mps 721 mmHg 87%
    11:00 +5°C° 0.1 mm 4 mps 722 mmHg 85%
    12:00 +5°C° 0.1 mm 4 mps 722 mmHg 84%
    13:00 +5°C° 0.1 mm 4 mps 723 mmHg 84%
    14:00 +5°C° 0.1 mm 4 mps 723 mmHg 83%
    15:00 +5°C° 0.1 mm 4 mps 724 mmHg 84%
    16:00 +5°C° 0.1 mm 4 mps 725 mmHg 85%
    17:00 +5°C° 0.1 mm 4 mps 725 mmHg 86%
    18:00 +3°C° 0.2 mm 5 mps 726 mmHg 86%
    19:00 +3°C° 0.2 mm 5 mps 727 mmHg 86%
    20:00 +3°C° 0.2 mm 6 mps 728 mmHg 86%
    21:00 +3°C° 0.4 mm 6 mps 729 mmHg 86%
    22:00 +3°C° 0.4 mm 6 mps 730 mmHg 85%
    23:00 +2°C° 0.4 mm 6 mps 730 mmHg 85%

    25 Octubre, Jueves

    Tiempo Temperatura Precipitaciones Viento Presión Humedad
    00:00 +2°C° 0.1 mm 6 mps 731 mmHg 85%
    01:00 +2°C° 0.1 mm 6 mps 732 mmHg 85%
    02:00 +2°C° 0.1 mm 6 mps 732 mmHg 85%
    03:00 +1°C° 0 mm 6 mps 733 mmHg 86%
    04:00 +1°C° 0 mm 5 mps 733 mmHg 87%
    05:00 0°C° 0 mm 5 mps 733 mmHg 89%
    06:00 0°C° 0 mm 5 mps 734 mmHg 88%
    07:00 +1°C° 0 mm 5 mps 734 mmHg 86%
    08:00 +1°C° 0 mm 5 mps 734 mmHg 85%
    09:00 +2°C° 0 mm 5 mps 734 mmHg 82%
    10:00 +2°C° 0 mm 5 mps 734 mmHg 79%
    11:00 +3°C° 0 mm 5 mps 734 mmHg 77%
    12:00 +3°C° 0 mm 5 mps 734 mmHg 75%
    13:00 +5°C° 0 mm 5 mps 734 mmHg 74%
    14:00 +5°C° 0 mm 5 mps 734 mmHg 73%
    15:00 +4°C° 0 mm 4 mps 734 mmHg 76%
    16:00 +4°C° 0 mm 4 mps 734 mmHg 78%
    17:00 +3°C° 0 mm 3 mps 734 mmHg 80%
    18:00 +3°C° 0 mm 3 mps 734 mmHg 83%
    19:00 +2°C° 0 mm 3 mps 734 mmHg 86%
    20:00 +2°C° 0 mm 3 mps 734 mmHg 88%
    21:00 +1°C° 0 mm 3 mps 734 mmHg 89%
    22:00 +1°C° 0 mm 3 mps 734 mmHg 90%
    23:00 +1°C° 0 mm 3 mps 734 mmHg 91%

    26 Octubre, Viernes

    Tiempo Temperatura Precipitaciones Viento Presión Humedad
    00:00 +2°C° 0 mm 2 mps 734 mmHg 91%
    01:00 +1°C° 0 mm 2 mps 734 mmHg 92%
    02:00 +1°C° 0 mm 2 mps 734 mmHg 93%
    03:00 +1°C° 0 mm 2 mps 735 mmHg 93%
    04:00 +1°C° 0 mm 2 mps 735 mmHg 94%
    05:00 +1°C° 0 mm 2 mps 735 mmHg 94%
    06:00 +1°C° 0 mm 2 mps 736 mmHg 95%
    07:00 +1°C° 0 mm 2 mps 736 mmHg 95%
    08:00 +1°C° 0 mm 2 mps 736 mmHg 95%
    09:00 +2°C° 0 mm 3 mps 736 mmHg 90%
    10:00 +3°C° 0 mm 3 mps 737 mmHg 86%
    11:00 +4°C° 0 mm 3 mps 737 mmHg 81%
    12:00 +5°C° 0 mm 4 mps 737 mmHg 77%
    13:00 +6°C° 0 mm 4 mps 737 mmHg 73%
    14:00 +7°C° 0 mm 4 mps 737 mmHg 70%
    15:00 +7°C° 0 mm 3 mps 737 mmHg 75%
    16:00 +5°C° 0 mm 3 mps 737 mmHg 80%
    17:00 +4°C° 0 mm 3 mps 737 mmHg 85%
    18:00 +4°C° 0.2 mm 3 mps 737 mmHg 86%
    19:00 +4°C° 0.2 mm 3 mps 736 mmHg 87%
    20:00 +5°C° 0.2 mm 4 mps 736 mmHg 88%
    21:00 +5°C° 0.6 mm 4 mps 736 mmHg 88%
    22:00 +6°C° 0.6 mm 5 mps 736 mmHg 88%
    23:00 +7°C° 0.6 mm 6 mps 736 mmHg 88%

    27 Octubre, Sábado

    Tiempo Temperatura Precipitaciones Viento Presión Humedad
    00:00 +6°C° 0 mm 5 mps 736 mmHg 86%
    01:00 +6°C° 0 mm 5 mps 736 mmHg 85%
    02:00 +6°C° 0 mm 5 mps 736 mmHg 83%
    03:00 +6°C° 0 mm 5 mps 736 mmHg 85%
    04:00 +6°C° 0 mm 5 mps 736 mmHg 86%
    05:00 +6°C° 0 mm 5 mps 736 mmHg 87%
    06:00 +5°C° 0 mm 5 mps 737 mmHg 88%
    07:00 +5°C° 0 mm 4 mps 737 mmHg 89%
    08:00 +5°C° 0 mm 4 mps 738 mmHg 89%
    09:00 +6°C° 0 mm 4 mps 738 mmHg 85%
    10:00 +7°C° 0 mm 5 mps 738 mmHg 80%
    11:00 +8°C° 0 mm 5 mps 739 mmHg 75%
    12:00 +8°C° 0 mm 5 mps 739 mmHg 73%
    13:00 +8°C° 0 mm 5 mps 739 mmHg 70%
    14:00 +10°C° 0 mm 4 mps 739 mmHg 68%
    15:00 +8°C° 0 mm 4 mps 739 mmHg 73%
    16:00 +8°C° 0 mm 3 mps 739 mmHg 78%
    17:00 +7°C° 0 mm 2 mps 739 mmHg 83%
    18:00 +7°C° 0.1 mm 2 mps 739 mmHg 85%
    19:00 +8°C° 0.1 mm 1 mps 739 mmHg 87%
    20:00 +8°C° 0.1 mm 1 mps 739 mmHg 89%
    21:00 +7°C° 0.6 mm 2 mps 739 mmHg 90%
    22:00 +7°C° 0.6 mm 2 mps 739 mmHg 92%
    23:00 +7°C° 0.6 mm 2 mps 738 mmHg 93%

    28 Octubre, Domingo

    Tiempo Temperatura Precipitaciones Viento Presión Humedad
    00:00 +7°C° 1.5 mm 3 mps 738 mmHg 93%
    01:00 +7°C° 1.5 mm 3 mps 737 mmHg 93%
    02:00 +6°C° 1.5 mm 4 mps 737 mmHg 94%
    03:00 +6°C° 0.7 mm 4 mps 737 mmHg 93%
    04:00 +6°C° 0.7 mm 4 mps 737 mmHg 93%
    05:00 +6°C° 0.7 mm 4 mps 737 mmHg 92%
    06:00 +6°C° 0.2 mm 4 mps 737 mmHg 91%
    07:00 +6°C° 0.2 mm 4 mps 738 mmHg 90%
    08:00 +6°C° 0.2 mm 4 mps 738 mmHg 89%
    09:00 +6°C° 0.1 mm 4 mps 739 mmHg 87%
    10:00 +6°C° 0.1 mm 4 mps 739 mmHg 84%
    11:00 +6°C° 0.1 mm 4 mps 740 mmHg 82%
    12:00 +6°C° 0.2 mm 4 mps 740 mmHg 82%
    13:00 +6°C° 0.2 mm 4 mps 740 mmHg 82%
    14:00 +6°C° 0.2 mm 4 mps 741 mmHg 82%
    15:00 +6°C° 1 mm 4 mps 741 mmHg 84%
    16:00 +5°C° 1 mm 4 mps 741 mmHg 85%
    17:00 +5°C° 1 mm 4 mps 742 mmHg 87%
    18:00 +4°C° 0.5 mm 4 mps 742 mmHg 87%
    19:00 +4°C° 0.5 mm 4 mps 742 mmHg 88%
    20:00 +4°C° 0.5 mm 4 mps 743 mmHg 88%
    21:00 +4°C° 0.3 mm 4 mps 743 mmHg 88%
    22:00 +4°C° 0.3 mm 4 mps 743 mmHg 87%
    23:00 +3°C° 0.3 mm 4 mps 744 mmHg 87%
    Mostrar más